Location: *
(58.7167°N, 26.1833°E)
Time: 05:53:42
(UTC+00:00)

Cosmos 1805 - Pass Details

Date: 25 August 2019
Orbit: 524 x 533 km, 82.5° (Epoch: 21 September)

Event Time Altitude Azimuth Distance (km) Brightness Sun altitude
Exits shadow 22:42:37 44° 251° (WSW) 747 3.7 -20.5°
Maximum altitude 22:43:21 51° 289° (WNW) 678 3.8 -20.5°
Drops below altitude 10° 22:47:13 10° 6° (N) 1,797 7.1 -20.4°
Sets 22:49:25 0° 12° (NNE) 2,691 8.4 -20.4°
